Lexington Weather

Lexington, Massachusetts, USA

68°F
9/23/2021 5:21am 
  • Lexington Conditions: Mostly cloudy
  • Temperature: 67.6°F / 19.8°CWarmer 0.9°F than last hour.
  • Dew Point: 66.7°FIncreased 1.2°Fsince last hour.
  • Relative Humidity: 97%Increased 1.0% since last hour.
  • Wind: Calm, 10-min avg: Calm, gust: 3 mph
  • Barometer: 30.03 in Steady
  • Visibility: 10 miles
  • Rain Today: 0.00 in
  •   

Regional Weather Roundup
for Boston / Norton, MA

        
000
ASUS41 KBOX 161505
RWRBOX

REGIONAL WEATHER ROUNDUP
NATIONAL WEATHER SERVICE BOSTON/NORTON MA
1100 AM EDT THU SEP 16 2021

NOTE:  "FAIR" INDICATES FEW OR NO CLOUDS BELOW 12,000 FEET WITH NO 
SIGNIFICANT WEATHER AND/OR OBSTRUCTIONS TO VISIBILITY.

MAZALL-161600-
EASTERN MASSACHUSETTS
  
CITY           SKY/WX    TMP DP  RH WIND       PRES   REMARKS
BOSTON         CLOUDY    70  64  81 E7        30.25R                  
BEVERLY        CLOUDY    70  66  87 NE8       30.25R                  
LAWRENCE       CLOUDY    70  63  78 NE13      30.27S                  
BEDFORD        PTSUNNY   71  66  84 NE8       30.25R                  
BLUE HILL      NOT AVBL                                               
NORWOOD        PTSUNNY   69  65  86 NE8       30.24R                  
MARSHFIELD     CLOUDY    66  66 100 SE8       30.24S                  
PLYMOUTH       CLOUDY    66  65  96 E8        30.23F                  
TAUNTON        CLOUDY    67  64  90 E3        30.23F                  
NEW BEDFORD    PTSUNNY   68  66  93 NE8       30.23F                  
$$

MAZALL-161600-
CAPE COD AND THE ISLANDS
  
CITY           SKY/WX    TMP DP  RH WIND       PRES   REMARKS
FALMOUTH       PTSUNNY   66  66 100 NE15      30.25R                  
HYANNIS        LGT RAIN  68  67  96 NE7       30.24R                  
CHATHAM        LGT RAIN  67  65  93 NE7       30.27R                  
PROVINCETOWN   PTSUNNY   66  65  96 E9        30.25F                  
NANTUCKET      LGT RAIN  69  66  90 NE15G22   30.21F                  
MARTHAS VNYRD  LGT RAIN  68  66  93 NE16      30.23S                  
$$
 
MAZALL-161600-
CENTRAL AND WESTERN MASSACHUSETTS
  
CITY           SKY/WX    TMP DP  RH WIND       PRES   REMARKS
WORCESTER      PTSUNNY   68  62  81 NE6       30.27R                  
FITCHBURG      MOSUNNY   68  61  78 N5        30.27R                  
ORANGE         MOSUNNY   70  62  76 N6        30.27S                  
SPRINGFIELD    PTSUNNY   70  63  79 CALM      30.24R                  
WESTFIELD      PTSUNNY   72  65  78 N9        30.25R                  
NORTH ADAMS    PTSUNNY   68  59  73 E7        30.26S                  
PITTSFIELD     PTSUNNY   66  59  78 E5        30.26R                  
$$
 
RIZALL-161600-
RHODE ISLAND
  
CITY           SKY/WX    TMP DP  RH WIND       PRES   REMARKS
PROVIDENCE     CLOUDY    69  66  90 E7        30.24R                  
NEWPORT        PTSUNNY   68  65  90 NE10      30.23R                  
BLOCK ISLAND   CLOUDY    69  65  86 E14G22    30.23R                  
SMITHFIELD     PTSUNNY   67  66  97 NE7       30.26R                  
WESTERLY       PTSUNNY   68  67  96 NE8       30.23R                  
$$
 
CTZALL-161600-
CONNECTICUT
  
CITY           SKY/WX    TMP DP  RH WIND       PRES   REMARKS
BRADLEY INTL   MOSUNNY   71  65  81 N9        30.23F                  
HARTFORD       PTSUNNY   71  64  78 N12       30.22S                  
BRIDGEPORT     CLOUDY    72  65  78 NE8       30.21R                  
DANBURY        CLOUDY    71  63  75 VRB7      30.24R                  
GROTON         PTSUNNY   72  66  81 E10       30.21R                  
NEW HAVEN      CLOUDY    73  68  84 NE7       30.21R                  
CHESTER        PTSUNNY   70  66  88 N7        30.23R                  
MERIDEN        CLOUDY    71  64  78 N6        30.22R                  
WILLIMANTIC    PTSUNNY   70  65  84 NE9       30.23R                  
OXFORD         PTSUNNY   67  64  90 N9        30.24R                  
$$

MEZ002-015-021-024-NHZ003-005-008-011-012-014-VTZ005-008-161600-
NORTHERN NEW ENGLAND
  
CITY           SKY/WX    TMP DP  RH WIND       PRES   REMARKS
PORTLAND ME    MOSUNNY   65  55  70 NE8       30.30R                  
BANGOR ME      PTSUNNY   65  56  72 VRB6      30.29R                  
CONCORD NH     CLOUDY    65  60  84 CALM      30.28                   
MANCHESTER NH  CLOUDY    70  62  76 N6        30.25S                  
NASHUA NH      PTSUNNY   68  66  93 VRB5      30.27R                  
PORTSMOUTH NH  CLOUDY    66  59  79 NE10      30.29R                  
JAFFREY NH     CLOUDY    68  61  78 VRB6      30.28R                  
KEENE NH       MOSUNNY   67  60  78 NW8       30.27S                  
BURLINGTON VT  MOSUNNY   67  55  65 CALM      30.29S                  
MT. WASHINGTON PTSUNNY   46  32  57 CALM        N/A                   
$$

NYZ052-076-161600-
EASTERN NEW YORK
  
CITY           SKY/WX    TMP DP  RH WIND       PRES   REMARKS
ALBANY         MOSUNNY   64  57  78 N7        30.28R                  
NEW YORK CITY  PTSUNNY   74  63  68 E14       30.20R                  
$$
 
ANZALL-161600-
MARINE OBSERVATIONS
  
STATION/POSITION TIME  TEMP    WIND        PRES    VSBY  WAVE
                       AIR SEA DIR/SP/G                  HT/PER
                 (UTC) (F)     (DEG/KT/KT) (MB)    (MI)  (FT/S)
BOSTON BUOY      1440      67   10/  8/ 10 1024.4R
BUZZARDS BAY     1400           40/ 17/ 18 1024.5R
NANTUCKET SOUND  1450   69 72   60/ 17/ 21 1023.8R         2/ 3
MASS BAY-STELLWA 1404   65      60/  4/  4 1023.9R  1 7/8  1/ 5
ISLE OF SHOALS   1400   65      40/ 15/ 17 1023.7R
S OF BLOCK IS    1426      69                N/A           4/ 4
$$

......................KEY.........................
  SKY/WX - SKY CONDITION/PRESENT WEATHER
  TMP    - TEMPERATURE IN FAHRENHEIT
  DWPT   - DEWPOINT IN FAHRENHEIT
  RH     - RELATIVE HUMIDITY IN PERCENT
  WIND   - DIRECTION AND SPEED IN MPH
  PRES   - MEAN SEA LEVEL PRESSURE IN INCHES OF HG
  WCI    - WIND CHILL INDEX
  VSB    - VISIBILITY IN MILES
  HX     - HEAT INDEX
  TC     - TEMPERATURE IN CELSIUS
  VRB    - VARIABLE WIND DIRECTION
  N/A    - NOT AVAILABLE
  
      

Other recent Regional Weather Roundups

Thu Sep 23, 5:04am

Thu Sep 23, 4:04am

Thu Sep 23, 3:04am

Thu Sep 23, 2:04am

Thu Sep 23, 1:04am

Thu Sep 23, 12:04am

Wed Sep 22, 11:04pm

Wed Sep 22, 10:04pm

Wed Sep 22, 9:04pm

Wed Sep 22, 8:04pm

Wed Sep 22, 7:04pm

Wed Sep 22, 6:04pm

Wed Sep 22, 5:04pm

Wed Sep 22, 4:04pm

Wed Sep 22, 3:04pm

Wed Sep 22, 2:04pm

Wed Sep 22, 1:04pm

Wed Sep 22, 12:05pm

Wed Sep 22, 11:04am

Wed Sep 22, 10:04am

Wed Sep 22, 9:04am

Wed Sep 22, 8:04am

Wed Sep 22, 7:04am

Wed Sep 22, 6:04am

Wed Sep 22, 5:04am

Wed Sep 22, 4:04am

Wed Sep 22, 3:04am

Wed Sep 22, 2:04am

Wed Sep 22, 1:04am

Wed Sep 22, 12:04am

Tue Sep 21, 11:04pm

Tue Sep 21, 10:04pm

Tue Sep 21, 9:04pm

Tue Sep 21, 8:04pm

Tue Sep 21, 7:04pm

Tue Sep 21, 6:04pm

Tue Sep 21, 5:04pm

Tue Sep 21, 4:04pm

Tue Sep 21, 3:04pm

Tue Sep 21, 2:04pm

Tue Sep 21, 1:04pm

Tue Sep 21, 12:04pm

Tue Sep 21, 11:04am

Tue Sep 21, 10:04am

Tue Sep 21, 9:04am

Tue Sep 21, 8:04am

Tue Sep 21, 7:04am

Tue Sep 21, 6:04am

Tue Sep 21, 5:04am

Tue Sep 21, 4:04am

Tue Sep 21, 3:04am

Tue Sep 21, 2:04am

Tue Sep 21, 1:04am

Tue Sep 21, 12:04am

Mon Sep 20, 11:04pm

Mon Sep 20, 10:04pm

Mon Sep 20, 9:04pm

Mon Sep 20, 8:04pm

Mon Sep 20, 7:04pm

Mon Sep 20, 6:04pm

Mon Sep 20, 5:04pm

Mon Sep 20, 4:04pm

Mon Sep 20, 3:04pm

Mon Sep 20, 2:04pm

Mon Sep 20, 1:04pm

Mon Sep 20, 12:04pm

Mon Sep 20, 11:04am

Mon Sep 20, 10:04am

Mon Sep 20, 9:04am

Mon Sep 20, 7:04am

Mon Sep 20, 6:04am

Mon Sep 20, 5:04am

Mon Sep 20, 4:04am

Mon Sep 20, 3:04am

Mon Sep 20, 2:04am

Mon Sep 20, 1:04am

Mon Sep 20, 12:04am

Sun Sep 19, 11:04pm

Sun Sep 19, 10:04pm

Sun Sep 19, 9:04pm

Sun Sep 19, 8:04pm

Sun Sep 19, 7:04pm

Sun Sep 19, 6:04pm

Sun Sep 19, 5:04pm

Sun Sep 19, 4:04pm

Sun Sep 19, 3:04pm

Sun Sep 19, 2:05pm

Sun Sep 19, 1:04pm

Sun Sep 19, 12:04pm

Sun Sep 19, 11:04am

Sun Sep 19, 10:05am

Sun Sep 19, 9:04am

Sun Sep 19, 8:04am

Sun Sep 19, 7:04am

Sun Sep 19, 6:04am

Sun Sep 19, 5:04am

Sun Sep 19, 4:04am

Sun Sep 19, 3:04am

Sun Sep 19, 2:04am

Sun Sep 19, 1:04am

Sun Sep 19, 12:04am

Sat Sep 18, 11:05pm

Sat Sep 18, 10:04pm

Sat Sep 18, 9:04pm

Sat Sep 18, 8:04pm

Sat Sep 18, 7:04pm

Sat Sep 18, 6:04pm

Sat Sep 18, 5:04pm

Sat Sep 18, 4:04pm

Sat Sep 18, 3:04pm

Sat Sep 18, 2:04pm

Sat Sep 18, 1:04pm

Sat Sep 18, 12:04pm

Sat Sep 18, 11:04am

Sat Sep 18, 10:04am

Sat Sep 18, 9:04am

Sat Sep 18, 8:04am

Sat Sep 18, 7:04am

Sat Sep 18, 6:04am

Sat Sep 18, 5:04am

Sat Sep 18, 4:04am

Sat Sep 18, 3:04am

Sat Sep 18, 2:04am

Sat Sep 18, 1:04am

Sat Sep 18, 12:04am

Fri Sep 17, 11:04pm

Fri Sep 17, 10:04pm

Fri Sep 17, 9:04pm

Fri Sep 17, 8:04pm

Fri Sep 17, 7:04pm

Fri Sep 17, 6:04pm

Fri Sep 17, 5:04pm

Fri Sep 17, 4:04pm

Fri Sep 17, 3:04pm

Fri Sep 17, 2:04pm

Fri Sep 17, 1:04pm

Fri Sep 17, 12:05pm

Fri Sep 17, 11:04am

Fri Sep 17, 10:04am

Fri Sep 17, 9:04am

Fri Sep 17, 8:04am

Fri Sep 17, 7:04am

Fri Sep 17, 6:04am

Fri Sep 17, 5:04am

Fri Sep 17, 4:04am

Fri Sep 17, 3:04am

Fri Sep 17, 2:04am

Fri Sep 17, 1:04am

Fri Sep 17, 12:04am

Thu Sep 16, 11:04pm

Thu Sep 16, 10:04pm

Thu Sep 16, 9:04pm

Thu Sep 16, 8:04pm

Thu Sep 16, 7:04pm

Thu Sep 16, 6:04pm

Thu Sep 16, 5:04pm

Thu Sep 16, 4:04pm

Thu Sep 16, 3:04pm

Thu Sep 16, 2:04pm

Thu Sep 16, 1:05pm

Thu Sep 16, 12:04pm

Thu Sep 16, 10:05am

Thu Sep 16, 9:04am

Thu Sep 16, 8:04am

Thu Sep 16, 7:04am

Thu Sep 16, 6:04am

Meta data:

ID: f5a4a766-d13e-4786-99a5-fa90368d95fc
Link: https://api.weather.gov/products/f5a4a766-d13e-4786-99a5-fa90368d95fc